Wichita, KS

4:21 PM CDT on August 19, 2017 (GMT -0500)
Wichita Eisenhower National Airport

Weather History for KICT - November, 2012

Change the Weather History Date:

Friday, November 23, 2012

  Actual Average Record
Temperature  
Mean Temperature 36 °F 42 °F  
Max Temperature 48 °F 52 °F 72 °F (1966)
Min Temperature 24 °F 31 °F 9 °F (1898)
Degree Days  
Heating Degree Days 29 23  
Month to date heating degree days 301 411  
Since 1 July heating degree days 561 697  
Cooling Degree Days 0 0  
Month to date cooling degree days 11 0  
Year to date cooling degree days 2312 1684  
Moisture  
Dew Point 20 °F    
Average Humidity 50    
Maximum Humidity 69    
Minimum Humidity 31    
Precipitation  
Precipitation 0.00 in 0.04 in 0.81 in (1932)
Month to date precipitation 0.55 1.14  
Year to date precipitation 24.67 31.15  
Snow  
Snow 0.00 in 0.10 in 3.90 in (1983)
Month to date snowfall T 0.7  
Since 1 July snowfall T 0.8  
Since 1 September snowfall T 0.8  
Snow Depth 0.00 in    
Sea Level Pressure  
Sea Level Pressure 30.49 in    
Wind  
Wind Speed 10 mph (NNW)    
Max Wind Speed 26 mph    
Max Gust Speed 32 mph    
Visibility 10 miles    
Events      
T = Trace of Precipitation, MM = Missing Value Source: NWS Daily Summary

Daily Weather History Graph

Daily Weather History Graph

Search for Another Location

Airport or City:

Trip Planner

Search our weather history database for the weather conditions in past years. The results will help you decide how hot, cold, wet, or windy it might be!

Date:

Astronomy

Nov. 23, 2012 Rise Set
Actual Time 7:18 AM CST 5:13 PM CST
Civil Twilight 6:50 AM CST 5:42 PM CST
Nautical Twilight 6:18 AM CST 6:14 PM CST
Astronomical Twilight 5:46 AM CST 6:45 PM CST
Moon 2:25 PM CST (11/23) 2:43 AM CST (11/23)
Length of Visible Light 10h 52m
Length of Day
9h 55m
Waxing Gibbous, 80% of the Moon is Illuminated
Nov 23
Waxing Gibbous
Nov 28
Full
Dec 6
Last Quarter
Dec 13
New
Dec 19
First Quarter

Hourly Weather History & Observations

Time (CST) Temp. Windchill Dew Point Humidity Pressure Visibility Wind Dir Wind Speed Gust Speed Precip Events Conditions
12:53 AM 45.0 °F 40.1 °F 33.1 °F 63% 30.34 in 10.0 mi North 9.2 mph - N/A   Clear
1:53 AM 44.1 °F 37.7 °F 28.9 °F 55% 30.35 in 10.0 mi North 12.7 mph - N/A   Clear
2:53 AM 43.0 °F 36.0 °F 27.0 °F 53% 30.39 in 10.0 mi North 13.8 mph - N/A   Clear
3:53 AM 41.0 °F 35.2 °F 27.0 °F 57% 30.41 in 10.0 mi NNW 9.2 mph - N/A   Clear
4:53 AM 41.0 °F 33.5 °F 25.0 °F 53% 30.45 in 10.0 mi North 13.8 mph - N/A   Clear
5:53 AM 37.9 °F 32.1 °F 25.0 °F 60% 30.48 in 10.0 mi North 8.1 mph - N/A   Clear
6:53 AM 37.9 °F 30.9 °F 24.1 °F 57% 30.50 in 10.0 mi NNW 10.4 mph - N/A   Clear
7:53 AM 37.9 °F 29.2 °F 21.0 °F 51% 30.52 in 10.0 mi North 15.0 mph - N/A   Clear
8:53 AM 37.9 °F 28.5 °F 18.0 °F 45% 30.56 in 10.0 mi North 17.3 mph 29.9 mph N/A   Clear
9:53 AM 39.0 °F 29.0 °F 16.0 °F 39% 30.58 in 10.0 mi North 20.7 mph 27.6 mph N/A   Clear
10:53 AM 41.0 °F 32.2 °F 14.0 °F 33% 30.59 in 10.0 mi NNW 18.4 mph 25.3 mph N/A   Clear
11:53 AM 42.1 °F 33.9 °F 15.1 °F 34% 30.57 in 10.0 mi NNW 17.3 mph 21.9 mph N/A   Clear
12:53 PM 43.0 °F 35.7 °F 15.1 °F 32% 30.55 in 10.0 mi NNW 15.0 mph - N/A   Clear
1:53 PM 44.1 °F 37.7 °F 16.0 °F 32% 30.53 in 10.0 mi NNW 12.7 mph - N/A   Clear
2:53 PM 44.1 °F 37.4 °F 15.1 °F 31% 30.52 in 10.0 mi NNW 13.8 mph - N/A   Partly Cloudy
3:53 PM 44.1 °F 38.1 °F 16.0 °F 32% 30.51 in 10.0 mi NNW 11.5 mph - N/A   Partly Cloudy
4:53 PM 42.1 °F 36.1 °F 16.0 °F 35% 30.51 in 10.0 mi North 10.4 mph - N/A   Partly Cloudy
5:53 PM 39.0 °F 34.0 °F 17.1 °F 41% 30.51 in 10.0 mi NNW 6.9 mph - N/A   Partly Cloudy
6:53 PM 37.0 °F - 17.1 °F 44% 30.51 in 10.0 mi Calm Calm - N/A   Partly Cloudy
7:53 PM 32.0 °F - 18.0 °F 56% 30.51 in 10.0 mi Calm Calm - N/A   Partly Cloudy
8:53 PM 35.1 °F - 18.0 °F 50% 30.49 in 10.0 mi Calm Calm - N/A   Partly Cloudy
9:53 PM 28.0 °F - 19.0 °F 69% 30.49 in 10.0 mi Calm Calm - N/A   Clear
10:53 PM 30.0 °F - 19.0 °F 64% 30.46 in 10.0 mi Calm Calm - N/A   Partly Cloudy
11:53 PM 27.0 °F - 18.0 °F 69% 30.46 in 10.0 mi Calm Calm - N/A   Partly Cloudy